"Pseudo-MPEC" for C0V9H65

Created 2024 Dec 6 3:31:05 UT using Find_Orb

Click here for an explanation of pseudo-MPECs

 
 Astrometry: 
     C0V9H65* C2024 11 26.30843402 46 23.164+19 33 04.86   ~BQ8V 23.28GVNEOCPV00
     C0V9H65  C2024 11 26.31406802 46 23.804+19 32 59.32   ~BQ8V 23.24GVNEOCPV00
     C0V9H65  C2024 11 26.31969202 46 24.427+19 32 53.59   ~BQ8V 23.74GVNEOCPV00
     C0V9H65  C2024 11 26.32530502 46 25.039+19 32 47.36   ~BQ8V 22.79GVNEOCPV00
     C0V9H65 mC2024 11 26.35595702 46 28.531+19 32 15.94   ~BQ92 22.51GVNEOCPV00
     C0V9H65 mC2024 11 26.35961402 46 28.938+19 32 12.48   ~BQ92 23.16GVNEOCPV00
     C0V9H65 mC2024 11 26.36327002 46 29.374+19 32 08.63   ~BQ92 23.00GVNEOCPV00

Station data:
(V00) Kitt Peak-Bok  (N31.963125 W111.600190)  US/Arizona.  Observers T. A.
   Pruyne, B. M. Africano, E. J. Christensen, G. A. Farneth, D. C. Fuls, A.
   R. Gibbs, A. D. Grauer, H. Gröller, J. A. Johnson, R. A. Kowalski, S. M.
   Larson, G. J. Leonard, D. Rankin, R. L. Seaman, F. C. Shelly, K. W.
   Wierzchoś. 2.25-m reflector + 4x4K mosaic CCD.

Orbital elements:  C0V9H65
   Perihelion 2024 Oct 4.79087 +/- 36.8 TT = 18:58:51 (JD 2460588.29087)
Epoch 2024 Nov 26.0 TT = JDT 2460640.5   Earth MOID: 0.0183   Ju: 0.1782
M   3.42793009 +/- 21               Ve: 0.0097   Me: 0.0986   Ma: 0.0185
n   0.06565767 +/- 0.173            Peri.   65.13963 +/- 80      AutoNEOCP
a   6.08525892 +/- 10.7             Node   253.06096 +/- 54
e   0.9187330 +/- 0.244             Incl.    2.78795 +/- 2.8
P  15.01131                H 25.52  G  0.15   U 11.6  SR
q 0.49453046 +/- 0.323    Q 11.6759873 +/- 46             (J2000 ecliptic)
From 7 observations 2024 Nov. 26 (79.0 min); mean residual 0".15
Residuals in arcseconds: 
241126 V00  .04+  .06-    241126 V00  .26-  .30-    241126 V00  .15+  .06+    
241126 V00  .15+  .16+    241126 V00  .03+  .18-    
241126 V00  .02+  .18+    241126 V00  .11-  .14+    

Ephemerides (geocentric):
Date (UTC) HH   RA             Dec           delta  r     elong  mag " sig PA
---- --------  ------------   ------------  ------ ------ -----  --- --------
2024 12 06 04  02 59 23.561   +18 06 47.80  .38602 1.3417 153.4 25.1  18d  72
2024 12 06 05  02 59 25.853   +18 06 37.40  .38679 1.3424 153.4 25.1  19d  72
2024 12 06 06  02 59 28.141   +18 06 27.07  .38755 1.3430 153.4 25.1  19d  72
2024 12 06 07  02 59 30.425   +18 06 16.80  .38832 1.3436 153.3 25.1  19d  72
2024 12 06 08  02 59 32.705   +18 06 06.58  .38908 1.3443 153.3 25.1  19d  72
2024 12 06 09  02 59 34.981   +18 05 56.42  .38985 1.3449 153.3 25.1  19d  72
2024 12 06 10  02 59 37.254   +18 05 46.32  .39061 1.3456 153.2 25.1  19d  72
2024 12 06 11  02 59 39.523   +18 05 36.28  .39138 1.3462 153.2 25.1  19d  72
2024 12 06 12  02 59 41.789   +18 05 26.30  .39215 1.3468 153.2 25.1  19d  72
2024 12 06 13  02 59 44.050   +18 05 16.37  .39291 1.3475 153.1 25.1  19d  72
2024 12 06 14  02 59 46.309   +18 05 06.49  .39368 1.3481 153.1 25.1  20d  72
2024 12 06 15  02 59 48.563   +18 04 56.68  .39445 1.3488 153.0 25.1  20d  72
2024 12 06 16  02 59 50.814   +18 04 46.92  .39521 1.3494 153.0 25.1  20d  72
2024 12 06 17  02 59 53.062   +18 04 37.21  .39598 1.3500 153.0 25.1  20d  72
2024 12 06 18  02 59 55.306   +18 04 27.56  .39675 1.3507 152.9 25.1  20d  72
2024 12 06 19  02 59 57.547   +18 04 17.97  .39752 1.3513 152.9 25.1  20d  72
2024 12 06 20  02 59 59.784   +18 04 08.43  .39828 1.3520 152.9 25.2  20d  72
2024 12 06 21  03 00 02.018   +18 03 58.94  .39905 1.3526 152.8 25.2  20d  72
2024 12 06 22  03 00 04.249   +18 03 49.51  .39982 1.3532 152.8 25.2  20d  72
2024 12 06 23  03 00 06.476   +18 03 40.14  .40059 1.3539 152.8 25.2  20d  72
2024 12 07 00  03 00 08.700   +18 03 30.81  .40136 1.3545 152.7 25.2  21d  72
2024 12 07 01  03 00 10.920   +18 03 21.54  .40213 1.3552 152.7 25.2  21d  72
2024 12 07 02  03 00 13.138   +18 03 12.33  .40290 1.3558 152.7 25.2  21d  72
2024 12 07 03  03 00 15.352   +18 03 03.17  .40367 1.3564 152.6 25.2  21d  72
2024 12 07 04  03 00 17.563   +18 02 54.06  .40444 1.3571 152.6 25.2  21d  72
2024 12 07 05  03 00 19.771   +18 02 45.00  .40521 1.3577 152.6 25.2  21d  72
2024 12 07 06  03 00 21.975   +18 02 36.00  .40598 1.3584 152.5 25.2  21d  72
2024 12 07 07  03 00 24.177   +18 02 27.05  .40675 1.3590 152.5 25.2  21d  72
2024 12 07 08  03 00 26.375   +18 02 18.15  .40752 1.3596 152.5 25.2  21d  72
2024 12 07 09  03 00 28.571   +18 02 09.30  .40829 1.3603 152.4 25.2  21d  72
2024 12 07 10  03 00 30.763   +18 02 00.50  .40906 1.3609 152.4 25.2  21d  72
2024 12 07 11  03 00 32.952   +18 01 51.76  .40983 1.3615 152.4 25.2  22d  72
2024 12 07 12  03 00 35.139   +18 01 43.06  .41060 1.3622 152.3 25.2  22d  72
2024 12 07 13  03 00 37.322   +18 01 34.42  .41138 1.3628 152.3 25.2  22d  72
2024 12 07 14  03 00 39.502   +18 01 25.83  .41215 1.3635 152.3 25.3  22d  72
2024 12 07 15  03 00 41.680   +18 01 17.28  .41292 1.3641 152.2 25.3  22d  72
2024 12 07 16  03 00 43.855   +18 01 08.79  .41369 1.3647 152.2 25.3  22d  72
2024 12 07 17  03 00 46.026   +18 01 00.35  .41446 1.3654 152.2 25.3  22d  72
2024 12 07 18  03 00 48.195   +18 00 51.96  .41524 1.3660 152.1 25.3  22d  72
2024 12 07 19  03 00 50.361   +18 00 43.62  .41601 1.3666 152.1 25.3  22d  72
2024 12 07 20  03 00 52.525   +18 00 35.32  .41678 1.3673 152.1 25.3  22d  72
2024 12 07 21  03 00 54.685   +18 00 27.08  .41756 1.3679 152.0 25.3  22d  72
2024 12 07 22  03 00 56.843   +18 00 18.88  .41833 1.3686 152.0 25.3  22d  72
2024 12 07 23  03 00 58.998   +18 00 10.73  .41910 1.3692 151.9 25.3  23d  72
2024 12 08 00  03 01 01.150   +18 00 02.64  .41988 1.3698 151.9 25.3  23d  72
2024 12 08 01  03 01 03.300   +17 59 54.59  .42065 1.3705 151.9 25.3  23d  72
2024 12 08 02  03 01 05.447   +17 59 46.58  .42143 1.3711 151.8 25.3  23d  72
2024 12 08 03  03 01 07.591   +17 59 38.63  .42220 1.3717 151.8 25.3  23d  72